Location: Ch�tillon
(48.8024°N, 2.2935°E)
Time: 16:04:21
(UTC+00:00)

Cosmos 1697 Rocket - Pass Details

Date: 27 May 2022
Orbit: 833 x 843 km, 71.0° (Epoch: 29 June)

Event Time Altitude Azimuth Distance (km) Brightness Sun altitude
Rises 22:10:17 0° 261° (W) 3,398 6.0 -16.5°
Reaches altitude 10° 22:13:33 10° 280° (W) 2,466 5.6 -16.7°
Maximum altitude 22:17:22 18° 323° (NW) 1,954 5.6 -16.9°
Drops below altitude 10° 22:21:11 10° 6° (N) 2,471 6.1 -17.2°
Sets 22:24:29 0° 25° (NNE) 3,408 6.6 -17.3°
